Tracking 29892 objects as of 21-Nov-2024
HD Live streaming from Space Station
objects crossing your sky now

STARLINK-3568

Track STARLINK-3568 now!
10-day predictions
STARLINK-3568 is classified as:


NORAD ID: 51856
Int'l Code: 2022-022E
Perigee: 546.0 km
Apogee: 547.8 km
Inclination: 53.2 °
Period: 95.4 minutes
Semi major axis: 6917 km
RCS: Unknown
Launch date: March 3, 2022
Source: United States (US)
Launch site: AIR FORCE EASTERN TEST RANGE (AFETR)
Your satellite tracking list
Your tracking list is empty




NASA's NSSDC Master Catalog

Two Line Element Set (TLE):
1 51856U 22022E   24326.03105319 -.00000521  00000-0 -14629-4 0  9998
2 51856  53.2161 345.4629 0001346  90.1456 269.9691 15.08838091151548
Source of the keplerian elements: AFSPC